Location: ????????
(55.6333°N, 37.7000°E)
Time: 10:21:56
(UTC+00:00)

Cosmos 1624 Rocket - Pass Details

Date: 19 May 2025
Orbit: 753 x 779 km, 74.0° (Epoch: 13 June)

Event Time Altitude Azimuth Distance (km) Brightness Sun altitude
Rises 21:02:50 0° 332° (NNW) 3,224 8.6 -14.2°
Reaches altitude 10° 21:05:13 10° 334° (NNW) 2,297 7.6 -14.3°
Maximum altitude 21:10:25 72° 60° (ENE) 801 4.1 -14.3°
Enters shadow 21:14:37 16° 143° (SE) 1,910 5.6 -14.4°
